DELTA 1 DEB, 42647

Orbit data source: Space-Track

DELTA 1 DEB, 42647 is space debris in SSO originally from a launch on Thu, 12 Jun 1975 UTC launched from the Air Force Western Test Range (AFWTR). Debris objects in space refer to the collection of defunct objects orbiting the Earth. Examples of debris include non-operational satellites, rocket bodies, and fragments generated from explosions, collisions, or faulty payload assembly.

Loading next visibility...
Identifier
42647, 1975-052MG
Orbit
SSO
Country
Flag of USUS
Related business
Manufacturer
Unknown
Mission
Spacecraft
Bus & Motor
Unknown
Mass
Unknown
Launch date (UTC)
1975-06-12 (50 years ago)
Launch vehicle
Unknown
Launch site
Air Force Western Test Range (AFWTR)
Object type
Payload
Rocket body
Debris
Shape & HBR
Unknown shape, 0.1 m
Radar Cross Section
Small (<0.1 m²)

Expand to show TLE details & history
Last TLE update: 4 days ago

TLE from 4 days ago
0 DELTA 1 DEB
1 42647U 75052MG  25284.70315488  .00000065  00000-0  21605-3 0  9997
2 42647  99.7105  83.9644 0065548 179.1680 180.9564 13.32560925 50554
Epoch: 2025-10-11T16:52Z
TLE epoch observation values (Epoch: 2025-10-11T16:52:32.581Z)
Latitude
-0.00007°
Longitude
170.29782°
Altitude
1,189.144 km
Speed
7.235 km/s
True Right ascension
05h 35m 51s
True Declination
0° 00' 00"
Sunlit
Object was in daylight at epoch
Visualization orbit readout
Latitude
Unknown
Longitude
Unknown
Altitude
Unknown
Speed
Unknown
Apparent Right ascension
Unknown
Apparent Declination
Unknown
Sunlit
N/A
Visualization observer readout
Local Sidereal Time
04:37:35
Azimuth
Unknown
Elevation
Unknown
Doppler factor
Unknown
Orbital elements
Apogee altitude
1,183.688 km
Perigee altitude
1,085.201 km
Semi-major axis
7,512.581 km
Eccentricity
0.00655
Inclination
99.7105°
RAAN
83.9644°
Arg. of periapsis
179.168°
True anomaly
180.94396°
Mean anomaly
180.9564°
Eccentric anomaly
180.95017°
Mean motion
3.33318 °/min
Orbital period
108 mins
BSTAR
0.00021605
Loading maneuver chart data...
Computing Atmospheric mass density...
Loading historical data...
Loading historical data...
Loading historical data...
Loading historical data...
Loading historical data...
Loading historical data...
Loading historical data...

Documentation

Showing up to 5 results
|